Location: Unspecified
(0.0000°N, 0.0000°E)
Time: 20:24:01
(UTC+00:00)

deb OV3-4 - Pass Details

Date: 12 April 2026
Orbit: 581 x 4210 km, 40.6° (Epoch: 13 May)

Event Time Altitude Azimuth Distance (km) Brightness Sun altitude
Rises 18:51:28 0° 323° (NW) 6,752 ? -12.5°
Reaches altitude 10° 18:57:10 10° 329° (NNW) 5,101 ? -13.9°
Maximum altitude 19:08:45 39° 33° (NNE) 2,082 ? -16.8°
Enters shadow 19:12:35 24° 84° (E) 2,216 ? -17.7°
